Location: Bastelaar
(51.0950°N, 3.8602°E)
Time: 14:14:49
(UTC+00:00)

Cosmos 2082 Rocket - Visible Passes

Search period start: 14 February 2026 00:00
Search period end: 24 February 2026 00:00
Orbit: 831 x 853 km, 71.0° (Epoch: 13 February)

Date Brightness Start Highest point End Pass type
(mag) Time Alt. Az. Time Alt. Az. Time Alt. Az.
14 Feb 4.5 17:38:39 10° NW 17:41:29 14° NNW 17:44:18 10° N visible
14 Feb 4.7 21:11:01 10° NNW 21:12:11 14° N 21:12:11 14° N visible
15 Feb 4.5 20:56:07 10° NNW 20:57:41 15° N 20:57:41 15° N visible
16 Feb 4.4 20:41:14 10° NNW 20:43:10 16° N 20:43:10 16° N visible
16 Feb 5.1 22:24:44 10° NNW 22:25:00 11° NNW 22:25:00 11° NNW visible
17 Feb 4.3 20:26:21 10° N 20:28:41 16° NNE 20:28:41 16° NNE visible
17 Feb 4.9 22:09:50 10° NNW 22:10:30 13° NNW 22:10:30 13° NNW visible
18 Feb 4.2 20:11:27 10° N 20:14:12 16° NNE 20:14:12 16° NNE visible
18 Feb 4.7 21:54:56 10° NNW 21:56:01 16° NNW 21:56:01 16° NNW visible
19 Feb 4.1 19:56:34 10° N 19:59:43 17° NNE 19:59:43 17° NNE visible
19 Feb 4.5 21:40:01 10° NNW 21:41:32 18° NNW 21:41:32 18° NNW visible
20 Feb 4.1 19:41:41 10° N 19:45:12 16° NNE 19:45:15 16° NNE visible
20 Feb 4.3 21:25:07 10° NNW 21:27:05 21° NNW 21:27:05 21° NNW visible
21 Feb 4.0 19:26:47 10° N 19:30:14 16° NNE 19:30:48 16° NE visible
21 Feb 4.0 21:10:13 10° NNW 21:12:38 25° N 21:12:38 25° N visible
22 Feb 4.0 19:11:53 10° N 19:15:16 16° NNE 19:16:22 15° NE visible
22 Feb 3.8 20:55:19 10° NNW 20:58:12 28° N 20:58:12 28° N visible
22 Feb 5.0 22:39:36 10° NW 22:40:02 12° NW 22:40:02 12° NW visible
23 Feb 4.0 18:57:00 10° N 19:00:17 15° NNE 19:01:58 14° NE visible
23 Feb 3.5 20:40:25 10° NNW 20:43:47 32° N 20:43:47 32° N visible
23 Feb 4.8 22:24:39 10° NW 22:25:37 15° NW 22:25:37 15° NW visible
